This is the latest recevied weather packets stored in our database for station/object KU9TRY. If no packets are shown the sender has not sent any weather packets the latest 10 day(s).
| Time | Temp. | Humidity | Pressure | Rain* | Wind** | Luminosity | Snow |
|---|---|---|---|---|---|---|---|
| 1778279109 | 20.56° C | 36% | 1012.2 hPa | 0 mm | - | 30 W/m² | - |
| 1778278805 | 21.11° C | 35% | 1012.2 hPa | 0 mm | - | 31 W/m² | - |
| 1778278502 | 21.11° C | 30% | 1012.2 hPa | 0 mm | - | 32 W/m² | - |
| 1778278198 | 21.11° C | 33% | 1012.4 hPa | 0 mm | - | 33 W/m² | - |
| 1778277895 | 20.56° C | 35% | 1012.4 hPa | 0 mm | - | 34 W/m² | - |
| 1778277591 | 20.56° C | 38% | 1012.5 hPa | 0 mm | - | 34 W/m² | - |
| 1778277288 | 21.11° C | 38% | 1012.4 hPa | 0 mm | - | 36 W/m² | - |
| 1778276984 | 21.67° C | 35% | 1012.6 hPa | 0 mm | - | 37 W/m² | - |
| 1778276683 | 21.67° C | 34% | 1012.5 hPa | 0 mm | - | 35 W/m² | - |
| 1778276378 | 21.67° C | 33% | 1012.5 hPa | 0 mm | - | 37 W/m² | - |
| 1778276076 | 21.67° C | 32% | 1012.5 hPa | 0 mm | - | 35 W/m² | - |
| 1778275771 | 21.67° C | 32% | 1012.4 hPa | 0 mm | - | 38 W/m² | - |
| 1778275468 | 21.67° C | 29% | 1012.4 hPa | 0 mm | - | 36 W/m² | - |
| 1778275164 | 22.22° C | 33% | 1012.2 hPa | 0 mm | - | 41 W/m² | - |
| 1778274860 | 22.22° C | 32% | 1012.3 hPa | 0 mm | - | 47 W/m² | - |
| 1778274557 | 21.67° C | 32% | 1012.3 hPa | 0 mm | - | 52 W/m² | - |
| 1778274254 | 21.67° C | 31% | 1012.4 hPa | 0 mm | - | 74 W/m² | - |
| 1778273950 | 22.22° C | 39% | 1012.6 hPa | 0 mm | - | 38 W/m² | - |
| 1778273647 | 22.22° C | 34% | 1012.5 hPa | 0 mm | - | 41 W/m² | - |
| 1778273343 | 22.22° C | 30% | 1012.7 hPa | 0 mm | - | 40 W/m² | - |
| 1778273041 | 22.22° C | 32% | 1012.6 hPa | 0 mm | - | 41 W/m² | - |
| 1778272736 | 22.22° C | 40% | 1012.6 hPa | 0 mm | - | 42 W/m² | - |
| 1778272432 | 22.22° C | 30% | 1012.7 hPa | 0 mm | - | 42 W/m² | - |
| 1778272128 | 22.22° C | 34% | 1012.8 hPa | 0 mm | - | 80 W/m² | - |
| 1778271826 | 22.22° C | 37% | 1013 hPa | 0 mm | - | 41 W/m² | - |
* Rain latest hour (hover to see other rain measurements)
** Current wind speed in m/s (hover to see current wind gust speed)